Regional Weather Roundup
Issued by NWS

Home | Current Version | Previous Version | Text Only | Print | Product List | Glossary On
Versions: 1 2 3 4 5 6 7 8 9 10 11 12 13 14 15 16 17 18 19 20 21 22 23 24 25 26 27 28 29 30 31 32 33 34 35 36 37 38 39 40 41 42 43 44 45 46 47 48 49 50
000
ASUS43 KDMX 010107
RWRIA

WEATHER ROUNDUP FOR IOWA
NATIONAL WEATHER SERVICE DES MOINES IA
800 PM CDT SUN AUG 31 2014

NOTE: "FAIR" INDICATES FEW OR NO CLOUDS BELOW 12,000 FEET WITH NO
SIGNIFICANT WEATHER AND/OR OBSTRUCTIONS TO VISIBILITY.

* - THESE STATIONS ARE NOT NWS STATIONS...THUS NOT UNDER NWS
QUALITY CONTROL.  THEY ALSO DO NOT REPORT WEATHER SUCH
AS PRECIPITATION OR FOG.

IAZ001>003-012>014-020>022-031>034-043>046-010200-
   NORTHWEST IOWA

CITY           SKY/WX    TMP DP  RH WIND       PRES   REMARKS
CARROLL *      HVY RAIN  68  64  88 SW26G49   29.70R
CHEROKEE *     CLOUDY    66  66 100 SE8       29.65R
DENISON *      HVY RAIN  66  66 100 S13G20    29.73R
LE MARS *      CLEAR     70  66  88 SE6       29.64R
ORANGE CITY *  CLOUDY    70  64  83 E5        29.62R
SHELDON *      LGT RAIN  66  66 100 NE8G14    29.58F
SIOUX CITY     CLOUDY    70  67  90 CALM      29.62
SPENCER        LGT RAIN  69  66  90 E9        29.66F
STORM LAKE *   DRIZZLE   66  66 100 S9        29.66F
$$

IAZ055>058-069>071-079>083-090>094-010200-
   SOUTHWEST IOWA

CITY           SKY/WX    TMP DP  RH WIND       PRES   REMARKS
ATLANTIC *     CLOUDY    79  73  83 VRB6G14   29.66R HX  82
AUDUBON *      HVY RAIN  72  66  83 NW33G53   29.76R
CLARINDA *     CLEAR     81  73  78 S10       29.64F HX  85
COUNCIL BLFS * LGT RAIN  72  72 100 W17G24    29.72R
CRESTON *      CLEAR     79  72  78 SE18G28   29.67R HX  82
HARLAN  *      LGT RAIN  66  64  94 N14G29    29.74R
LAMONI         MOCLDY    81  69  67 SE12G21   29.69F HX  84
RED OAK *      CLOUDY    81  75  83 SW14G22   29.65R HX  86
SHENANDOAH *   MOCLDY    79  73  83 S12G18    29.62F HX  82
$$

IAZ047>049-059>061-072>074-084-010200-
   CENTRAL IOWA

CITY           SKY/WX    TMP DP  RH WIND       PRES   REMARKS
AMES           CLOUDY    78  73  84 SE10      29.67F HX  81
ANKENY *       CLEAR     81  73  78 S13       29.67S HX  85
CHARITON *     MOCLDY    81  72  74 SE16G22   29.70F HX  84
DES MOINES     CLOUDY    82  71  69 S17       29.67F HX  86
GRINNELL*      PTCLDY    79  70  73 SE13      29.71F HX  81
KNOXVILLE *    CLOUDY    81  72  74 SE14      29.68F HX  84
MARSHALLTOWN   PTCLDY    79  71  76 SE12      29.68F HX  82
PELLA *        PTCLDY    81  72  74 SE10      29.71F HX  84
PERRY *          N/A     79  72  78 S10       29.67R HX  82
$$

IAZ004>006-015-016-023>025-035-036-010200-
   NORTH CENTRAL IOWA

CITY           SKY/WX    TMP DP  RH WIND       PRES   REMARKS
ALGONA *       DRIZZLE   68  64  88 NW22G31   29.73R
CLARION *      CLEAR     73  66  78 SE13      29.67R
ESTHERVILLE    CLOUDY    65  64  97 SE9       29.71F
FORT DODGE *   CLOUDY    72  66  83 E6        29.67R
MASON CITY     MOCLDY    69  67  93 E6        29.70F
FOREST CITY *  LGT RAIN  68  64  88 E7        29.68F
IOWA FALLS *     N/A     77  72  83 SE8       29.68F
$$

IAZ007>011-017>019-026>030-037>042-050>054-066-010200-
   NORTHEAST IOWA

CITY           SKY/WX    TMP DP  RH WIND       PRES   REMARKS
CEDAR RAPIDS   CLEAR     79  72  79 S10       29.74F HX  82
CHARLES CITY * PTCLDY    72  70  94 E6        29.72F
CLINTON *      CLEAR     77  68  73 SE9       29.82F
DECORAH *      MOCLDY    77  72  83 CALM      29.74F
DUBUQUE        PTCLDY    74  68  81 S10       29.79F
MONTICELLO *   CLEAR     77  72  83 SE8       29.76F
OELWEIN *      CLOUDY    77  73  88 SE8       29.75F
WATERLOO       PTCLDY    80  71  74 S10       29.70F HX  84
$$

IAZ064-065-067-068-078-010200-
   EAST CENTRAL IOWA

CITY           SKY/WX    TMP DP  RH WIND       PRES   REMARKS
DAVENPORT      CLEAR     78  68  71 S10       29.80F HX  80
IOWA CITY      PTCLDY    79  73  82 SE12      29.76F HX  82
MT. PLEASANT * PTCLDY    77  70  78 SE8       29.78F
MUSCATINE *    CLEAR     81  72  74 S9        29.78F HX  84
QUAD CITIES    CLEAR     78  70  76 SE12      29.79F HX  80
$$

IAZ062-063-075>077-085>089-095>099-010200-
   SOUTHEAST IOWA

CITY           SKY/WX    TMP DP  RH WIND       PRES   REMARKS
BURLINGTON     PTCLDY    80  72  76 S8        29.81F HX  84
FAIRFIELD *    PTCLDY    79  72  78 SE14      29.75F HX  82
FORT MADISON * CLEAR     81  72  74 SE7       29.81F HX  84
KEOKUK *       CLEAR     81  72  74 SE8       29.80F HX  84
OSKALOOSA *      N/A     77  72  83 SE9       29.71F
CENTERVILLE *  CLEAR     77  72  83 SE12      29.74F
OTTUMWA        PTCLDY    79  69  71 SE15      29.71F HX  81
WASHINGTON *   CLEAR     79  73  83 SE10      29.76F HX  82
$$

ABBREVIATIONS USED IN REMARKS
   TC - TEMPERATURES IN CELSIUS
  WCI - WIND CHILL INDEX
   HX - HEAT INDEX
  VSB - VISIBILITY
$$



USA.gov is the U.S. government's official web portal to all federal, state and local government web resources and services.